Regional Weather Roundup
Issued by NWS

Home | Current Version | Previous Version | Graphics & Text | Print | Product List | Glossary On
Versions: 1 2 3 4 5 6 7 8 9 10 11 12 13 14 15 16 17 18 19 20 21 22 23 24 25 26 27 28 29 30 31 32 33 34 35 36 37 38 39 40 41 42 43 44 45 46 47 48 49 50
000
ASUS43 KLMK 230110
RWRKY
KENTUCKY REGIONAL WEATHER ROUNDUP
NATIONAL WEATHER SERVICE LOUISVILLE KY
900 PM EDT MON MAY 22 2017

NOTE "FAIR" INDICATES FEW OR NO CLOUDS BELOW 12,000 FEET
WITH NO SIGNIFICANT WEATHER AND/OR OBSTRUCTIONS TO VISIBILITY.

KYZ001>023-026-027-061>063-070>075-230200-
WESTERN AND SOUTH CENTRAL KENTUCKY

CITY           SKY/WX    TMP DP  RH WIND       PRES   REMARKS
PADUCAH        CLOUDY    69  52  54 CALM      29.96S
HENDERSON      CLOUDY    68  50  52 CALM      29.98S
OWENSBORO      MOCLDY    68  52  56 E5        29.98F
HOPKINSVILLE   CLOUDY    68  51  54 E5        29.97R
BOWLING GREEN  CLOUDY    66  56  70 NE5       29.99S
GLASGOW        CLOUDY    63  53  72 CALM      29.98F
$$

KYZ024-025-028>034-038-045-046-053-230200-
NORTH CENTRAL KENTUCKY

CITY           SKY/WX    TMP DP  RH WIND       PRES   REMARKS
LOUISVILLE/SDF CLOUDY    67  48  50 SE7       30.00S
LOUISVILLE/LOU CLOUDY    68  48  48 SE5       30.00F
FORT KNOX      CLOUDY    61  55  81 N3        29.99S
$$

KYZ035>037-039>044-047>052-055>060-089>105-230200-
NORTHEAST KENTUCKY

CITY           SKY/WX    TMP DP  RH WIND       PRES   REMARKS
LEXINGTON      PTCLDY    61  48  62 NE7       30.02F
COVINGTON      MOCLDY    60  47  61 SE5       30.02F
FRANKFORT      PTCLDY    63  49  60 SE5       30.00F
$$

KYZ054-064>069-076>088-106>120-230200-
SOUTHEAST KENTUCKY

CITY           SKY/WX    TMP DP  RH WIND       PRES   REMARKS
JACKSON        PTCLDY    59  52  77 CALM      30.02F
LONDON         CLOUDY    62  50  64 NE3       30.01F
SOMERSET       PTCLDY    61  52  72 E3        30.02S
MIDDLESBORO    PTCLDY    64  58  80 CALM      30.01S
MONTICELLO     NOT AVBL
$$





USA.gov is the U.S. government's official web portal to all federal, state and local government web resources and services.